Time,TemperatureF,DewpointF,PressureIn,WindDirection,WindDirectionDegrees,WindSpeedMPH,WindSpeedGustMPH,Humidity,HourlyPrecipIn,Conditions,Clouds,dailyrainin,SolarRadiationWatts/m^2,SoftwareType,DateUTC
2013-01-06 14:12:00,42.0,-7.0,-100.00,NNE,18,7.0,15.0,12,0.00,,,0.00,536.000000,,2013-01-06 21:12:00,
2013-01-06 14:22:00,42.0,-7.0,-100.00,NNE,18,7.0,15.0,12,0.00,,,0.00,536.000000,,2013-01-06 21:22:00,
2013-01-06 14:33:00,42.0,-7.0,-100.00,NNE,18,7.0,15.0,12,0.00,,,0.00,536.000000,,2013-01-06 21:33:00,
2013-01-06 14:53:00,41.0,-11.0,-100.00,SW,214,7.0,24.0,10,0.00,,,0.00,462.000000,,2013-01-06 21:53:00,
2013-01-06 15:02:00,41.0,-11.0,-100.00,SW,214,7.0,24.0,10,0.00,,,0.00,462.000000,,2013-01-06 22:02:00,
2013-01-06 15:12:00,41.0,-11.0,-100.00,SW,214,7.0,24.0,10,0.00,,,0.00,462.000000,,2013-01-06 22:12:00,
2013-01-06 15:22:00,41.0,-11.0,-100.00,SW,214,7.0,24.0,10,0.00,,,0.00,462.000000,,2013-01-06 22:22:00,
2013-01-06 15:33:00,41.0,-11.0,-100.00,SW,214,7.0,24.0,10,0.00,,,0.00,462.000000,,2013-01-06 22:33:00,
2013-01-06 15:53:00,38.0,-14.0,-100.00,SW,221,11.0,23.0,10,0.00,,,0.00,264.000000,,2013-01-06 22:53:00,
2013-01-06 16:02:00,38.0,-14.0,-100.00,SW,221,11.0,23.0,10,0.00,,,0.00,264.000000,,2013-01-06 23:02:00,
2013-01-06 16:12:00,38.0,-14.0,-100.00,SW,221,11.0,23.0,10,0.00,,,0.00,264.000000,,2013-01-06 23:12:00,
2013-01-06 16:22:00,38.0,-14.0,-100.00,SW,221,11.0,23.0,10,0.00,,,0.00,264.000000,,2013-01-06 23:22:00,
2013-01-06 16:33:00,38.0,-14.0,-100.00,SW,221,11.0,23.0,10,0.00,,,0.00,264.000000,,2013-01-06 23:33:00,
2013-01-06 16:53:00,34.0,-10.0,-100.00,South,182,6.0,20.0,14,0.00,,,0.00,75.000000,,2013-01-06 23:53:00,
2013-01-06 17:02:00,34.0,-10.0,-100.00,South,182,6.0,20.0,14,0.00,,,0.00,75.000000,,2013-01-07 00:02:00,
2013-01-06 17:12:00,34.0,-10.0,-100.00,South,182,6.0,20.0,14,0.00,,,0.00,75.000000,,2013-01-07 00:12:00,
2013-01-06 17:23:00,34.0,-10.0,-100.00,South,182,6.0,20.0,14,0.00,,,0.00,75.000000,,2013-01-07 00:23:00,
2013-01-06 17:33:00,34.0,-10.0,-100.00,South,182,6.0,20.0,14,0.00,,,0.00,75.000000,,2013-01-07 00:33:00,
2013-01-06 17:53:00,33.0,-10.0,-100.00,SSW,205,7.0,21.0,15,0.00,,,0.00,6.000000,,2013-01-07 00:53:00,
2013-01-06 18:02:00,33.0,-10.0,-100.00,SSW,205,7.0,21.0,15,0.00,,,0.00,6.000000,,2013-01-07 01:02:00,
2013-01-06 18:12:00,33.0,-10.0,-100.00,SSW,205,7.0,21.0,15,0.00,,,0.00,6.000000,,2013-01-07 01:12:00,
2013-01-06 18:23:00,33.0,-10.0,-100.00,SSW,205,7.0,21.0,15,0.00,,,0.00,6.000000,,2013-01-07 01:23:00,
2013-01-06 18:32:00,33.0,-10.0,-100.00,SSW,205,7.0,21.0,15,0.00,,,0.00,6.000000,,2013-01-07 01:32:00,
2013-01-06 18:53:00,34.0,-10.0,-100.00,SW,217,8.0,18.0,14,0.00,,,0.00,0.000000,,2013-01-07 01:53:00,
2013-01-06 19:02:00,34.0,-10.0,-100.00,SW,217,8.0,18.0,14,0.00,,,0.00,0.000000,,2013-01-07 02:02:00,
2013-01-06 19:12:00,34.0,-10.0,-100.00,SW,217,8.0,18.0,14,0.00,,,0.00,0.000000,,2013-01-07 02:12:00,
2013-01-06 19:22:00,34.0,-10.0,-100.00,SW,217,8.0,18.0,14,0.00,,,0.00,0.000000,,2013-01-07 02:22:00,
2013-01-06 19:32:00,34.0,-10.0,-100.00,SW,217,8.0,18.0,14,0.00,,,0.00,0.000000,,2013-01-07 02:32:00,
2013-01-06 19:53:00,33.0,-8.0,-100.00,West,269,7.0,20.0,16,0.00,,,0.00,0.000000,,2013-01-07 02:53:00,
2013-01-06 20:02:00,33.0,-8.0,-100.00,West,269,7.0,20.0,16,0.00,,,0.00,0.000000,,2013-01-07 03:02:00,
2013-01-06 20:12:00,33.0,-8.0,-100.00,West,269,7.0,20.0,16,0.00,,,0.00,0.000000,,2013-01-07 03:12:00,
2013-01-06 20:22:00,33.0,-8.0,-100.00,West,269,7.0,20.0,16,0.00,,,0.00,0.000000,,2013-01-07 03:22:00,
2013-01-06 20:33:00,33.0,-8.0,-100.00,West,269,7.0,20.0,16,0.00,,,0.00,0.000000,,2013-01-07 03:33:00,
2013-01-06 20:53:00,29.0,-7.0,-100.00,NNW,330,5.0,21.0,20,0.00,,,0.00,0.000000,,2013-01-07 03:53:00,
2013-01-06 21:02:00,29.0,-7.0,-100.00,NNW,330,5.0,21.0,20,0.00,,,0.00,0.000000,,2013-01-07 04:02:00,
2013-01-06 21:12:00,29.0,-7.0,-100.00,NNW,330,5.0,21.0,20,0.00,,,0.00,0.000000,,2013-01-07 04:12:00,
2013-01-06 21:22:00,29.0,-7.0,-100.00,NNW,330,5.0,21.0,20,0.00,,,0.00,0.000000,,2013-01-07 04:22:00,
2013-01-06 21:32:00,29.0,-7.0,-100.00,NNW,330,5.0,21.0,20,0.00,,,0.00,0.000000,,2013-01-07 04:32:00,
2013-01-06 21:52:00,25.0,-7.0,-100.00,SE,135,3.0,8.0,24,0.00,,,0.00,0.000000,,2013-01-07 04:52:00,
2013-01-06 22:03:00,25.0,-7.0,-100.00,SE,135,3.0,8.0,24,0.00,,,0.00,0.000000,,2013-01-07 05:03:00,
2013-01-06 22:12:00,25.0,-7.0,-100.00,SE,135,3.0,8.0,24,0.00,,,0.00,0.000000,,2013-01-07 05:12:00,
2013-01-06 22:22:00,25.0,-7.0,-100.00,SE,135,3.0,8.0,24,0.00,,,0.00,0.000000,,2013-01-07 05:22:00,
2013-01-06 22:33:00,25.0,-7.0,-100.00,SE,135,3.0,8.0,24,0.00,,,0.00,0.000000,,2013-01-07 05:33:00,
2013-01-06 22:53:00,25.0,-7.0,-100.00,East,89,3.0,9.0,24,0.00,,,0.00,0.000000,,2013-01-07 05:53:00,
2013-01-06 23:02:00,25.0,-7.0,-100.00,East,89,3.0,9.0,24,0.00,,,0.00,0.000000,,2013-01-07 06:02:00,
2013-01-06 23:12:00,25.0,-7.0,-100.00,East,89,3.0,9.0,24,0.00,,,0.00,0.000000,,2013-01-07 06:12:00,
2013-01-06 23:22:00,25.0,-7.0,-100.00,East,89,3.0,9.0,24,0.00,,,0.00,0.000000,,2013-01-07 06:22:00,
2013-01-06 23:32:00,25.0,-7.0,-100.00,East,89,3.0,9.0,24,0.00,,,0.00,0.000000,,2013-01-07 06:32:00,
2013-01-06 23:52:00,23.0,-7.0,-100.00,NE,46,3.0,9.0,26,0.00,,,0.00,0.000000,,2013-01-07 06:52:00,